Charlottesville, VA

12:44 AM EDT on April 23, 2018 (GMT -0400)
Charlottesville-Albemarle

Weather History for KCHO - April, 2013

Change the Weather History Date:

Wednesday, April 17, 2013

  Actual Average Record
Temperature  
Mean Temperature 72 °F 56 °F  
Max Temperature 83 °F 68 °F 92 °F (2002)
Min Temperature 60 °F 44 °F 28 °F (2014)
Degree Days  
Heating Degree Days 0 10  
Month to date heating degree days 148 202  
Since 1 July heating degree days 3939 4206  
Cooling Degree Days 7 1  
Month to date cooling degree days 40 9  
Year to date cooling degree days 40 11  
Growing Degree Days 20 (Base 50)    
Moisture  
Dew Point 57 °F    
Average Humidity 66    
Maximum Humidity 90    
Minimum Humidity 42    
Precipitation  
Precipitation T in 0.11 in 0.59 in (2015)
Month to date precipitation 1.74 1.92  
Year to date precipitation 11.00 11.05  
Sea Level Pressure  
Sea Level Pressure 30.14 in    
Wind  
Wind Speed 5 mph (ESE)    
Max Wind Speed 14 mph    
Max Gust Speed 17 mph    
Visibility 10 miles    
Events Rain    
T = Trace of Precipitation, MM = Missing Value Source: NWS Daily Summary

Daily Weather History Graph

Daily Weather History Graph

Search for Another Location

Airport or City:

Astronomy

Apr. 17, 2013 Rise Set
Actual Time 6:35 AM EDT 7:52 PM EDT
Civil Twilight 6:07 AM EDT 8:19 PM EDT
Nautical Twilight 5:35 AM EDT 8:52 PM EDT
Astronomical Twilight 5:00 AM EDT 9:26 PM EDT
Moon 11:49 AM EDT (4/17) 1:26 AM EDT (4/17)
Length of Visible Light 14h 11m
Length of Day
13h 16m
Waxing Crescent, 42% of the Moon is Illuminated
Apr 17
Waxing Crescent
Apr 18
First Quarter
Apr 25
Full
May 2
Last Quarter
May 9
New

Hourly Weather History & Observations

Time (EDT) Temp. Heat Index Dew Point Humidity Pressure Visibility Wind Dir Wind Speed Gust Speed Precip Events Conditions
12:53 AM 64.0 °F - 57.0 °F 78% 30.18 in 10.0 mi SSW 6.9 mph - N/A   Clear
1:53 AM 63.0 °F - 57.9 °F 84% 30.17 in 9.0 mi SSE 4.6 mph - 0.00 in Rain Light Rain
2:53 AM 62.1 °F - 57.0 °F 84% 30.13 in 10.0 mi South 6.9 mph - 0.00 in   Clear
3:53 AM 61.0 °F - 57.0 °F 87% 30.12 in 10.0 mi SSW 3.5 mph - N/A   Clear
4:53 AM 62.1 °F - 57.9 °F 86% 30.12 in 10.0 mi Calm Calm - N/A   Clear
5:53 AM 61.0 °F - 57.0 °F 87% 30.13 in 10.0 mi South 5.8 mph - N/A   Scattered Clouds
6:53 AM 60.1 °F - 57.0 °F 90% 30.15 in 10.0 mi SSW 5.8 mph - N/A   Clear
7:53 AM 62.1 °F - 57.0 °F 84% 30.16 in 10.0 mi Calm Calm - N/A   Clear
8:53 AM 64.0 °F - 57.9 °F 80% 30.16 in 10.0 mi Calm Calm - N/A   Clear
10:53 AM 71.1 °F - 61.0 °F 70% 30.18 in 10.0 mi NNE 3.5 mph - N/A   Clear
11:53 AM 75.0 °F - 59.0 °F 57% 30.17 in 10.0 mi Calm Calm - N/A   Clear
12:53 PM 79.0 °F - 57.9 °F 48% 30.15 in 10.0 mi Variable 3.5 mph - N/A   Clear
1:53 PM 80.1 °F 80.2 °F 55.9 °F 43% 30.13 in 10.0 mi NNW 5.8 mph - N/A   Partly Cloudy
2:53 PM 81.0 °F 80.7 °F 55.0 °F 41% 30.12 in 10.0 mi Calm Calm - N/A   Partly Cloudy
3:53 PM 80.1 °F 80.1 °F 55.0 °F 42% 30.10 in 10.0 mi Variable 4.6 mph - N/A   Partly Cloudy
4:53 PM 81.0 °F 81.0 °F 57.0 °F 44% 30.09 in 10.0 mi SE 10.4 mph - N/A   Partly Cloudy
5:53 PM 81.0 °F 80.8 °F 55.9 °F 42% 30.10 in 10.0 mi SE 8.1 mph - N/A   Mostly Cloudy
6:53 PM 79.0 °F - 55.9 °F 45% 30.10 in 10.0 mi East 5.8 mph - N/A   Overcast
7:53 PM 71.1 °F - 60.1 °F 68% 30.13 in 10.0 mi North 10.4 mph 17.3 mph 0.00 in Rain Light Rain
8:53 PM 69.1 °F - 59.0 °F 70% 30.16 in 10.0 mi NNE 11.5 mph - 0.00 in   Overcast
9:53 PM 66.9 °F - 57.9 °F 73% 30.17 in 10.0 mi NE 8.1 mph - N/A   Clear
10:53 PM 66.0 °F - 57.9 °F 75% 30.18 in 10.0 mi NNE 9.2 mph - N/A   Mostly Cloudy
11:53 PM 64.9 °F - 57.9 °F 78% 30.18 in 10.0 mi NE 8.1 mph - N/A   Overcast